Tracking 19827 objects as of 21-Aug-2019
HD Live streaming from Space Station
objects crossing your sky now

FENGYUN 1C DEB


FENGYUN 1C DEB is no longer on orbit


NORAD ID: 31278
Int'l Code: 1999-025BNL
Perigee: N/A
Apogee: N/A
Inclination: N/A
Period: N/A
Semi major axis: N/A
RCS: N/A
Launch date: May 10, 1999
Source: People's Republic of China (PRC)
Launch site: Taiyaun Space Center, China (TSC)
Decay date: 2012-04-08

Note: This is SATELLITE DEBRIS
aabbcc
Your satellite tracking list
Your tracking list is empty




NASA's NSSDC Master Catalog

Two Line Element Set (TLE):
1 31278U 99025BNL 12098.73767553  .01919395  17431-5  13630-2 0  9992
2 31278 096.2853 083.8222 0049513 065.3562 309.9242 16.13149045273993
Source of the keplerian elements: AFSPC